SPMKA EPKT-EPKK

Flight info

Callsign SPMKA
Flight time N/A
Altitude 2000
Route AEPKT STAY01/0030 DCT EPKTX DCT EPKTG DCT EPKKH DCT EPKKB DCT EPKKI DCT EPKKZ DCT AEPKK STAY02/0030
Aircraft DA40/L-V/N

Departure

Time 2026-05-06 18:45
Airport Katowice Wojciech Korfanty International Airport (EPKT)

Arrival

Time N/A
Airport Kraków John Paul II International Airport (EPKK)
Time Latitude Longitude Altitude Speed Heading
2026-05-06 18:33 50.47401 19.05752 983 ft 0 kts 359°
2026-05-06 18:37 50.47406 19.05752 955 ft 4 kts 359°
2026-05-06 18:38 50.47445 19.05806 984 ft 13 kts 88°
2026-05-06 18:38 50.47444 19.05983 986 ft 20 kts 101°
2026-05-06 18:38 50.47429 19.06229 989 ft 26 kts 91°
2026-05-06 18:38 50.47425 19.06524 992 ft 27 kts 87°
2026-05-06 18:39 50.47427 19.06818 993 ft 26 kts 90°
2026-05-06 18:39 50.47427 19.07067 993 ft 22 kts 91°
2026-05-06 18:39 50.47426 19.07300 993 ft 21 kts 92°
2026-05-06 18:40 50.47424 19.07774 993 ft 27 kts 90°
2026-05-06 18:40 50.47426 19.08111 993 ft 35 kts 83°
2026-05-06 18:40 50.47424 19.08449 993 ft 19 kts 91°
2026-05-06 18:40 50.47423 19.08673 993 ft 23 kts 91°
2026-05-06 18:41 50.47425 19.08913 993 ft 14 kts 91°
2026-05-06 18:41 50.47422 19.09091 993 ft 19 kts 89°
2026-05-06 18:41 50.47421 19.09288 993 ft 13 kts 91°
2026-05-06 18:41 50.47439 19.09370 993 ft 11 kts 42°
2026-05-06 18:42 50.47445 19.09377 993 ft 1 kts 33°
2026-05-06 18:42 50.47483 19.09391 993 ft 11 kts 358°
2026-05-06 18:42 50.47507 19.09391 994 ft 0 kts
2026-05-06 18:43 50.47512 19.09391 994 ft 4 kts 360°
2026-05-06 18:44 50.47578 19.09374 995 ft 15 kts 316°
2026-05-06 18:44 50.47596 19.09199 997 ft 21 kts 271°
2026-05-06 18:44 50.47597 19.08876 995 ft 37 kts 270°
2026-05-06 18:44 50.47598 19.08302 992 ft 70 kts 270°
2026-05-06 18:45 50.47602 19.07385 1053 ft 90 kts 265°
2026-05-06 18:45 50.47598 19.06400 1246 ft 91 kts 265°
2026-05-06 18:45 50.47651 19.05419 1463 ft 91 kts 269°
2026-05-06 18:45 50.47697 19.04356 1636 ft 102 kts 271°
2026-05-06 18:46 50.47909 19.03310 1819 ft 111 kts 315°
2026-05-06 18:46 50.48693 19.02979 1833 ft 128 kts 359°
2026-05-06 18:46 50.49612 19.03027 1825 ft 135 kts 21°
2026-05-06 18:46 50.50237 19.04018 1827 ft 134 kts 77°
2026-05-06 18:47 50.50264 19.05459 1823 ft 132 kts 103°
2026-05-06 18:47 50.50145 19.06885 1825 ft 132 kts 98°
2026-05-06 18:47 50.49736 19.07932 1772 ft 130 kts 182°
2026-05-06 18:47 50.49645 19.06760 1731 ft 150 kts 337°
2026-05-06 18:48 50.50244 19.07497 1724 ft 126 kts 108°
2026-05-06 18:48 50.49520 19.07826 1549 ft 134 kts 207°
2026-05-06 18:48 50.49054 19.06668 1678 ft 130 kts 263°
2026-05-06 18:48 50.49454 19.05437 1803 ft 136 kts 322°
2026-05-06 18:49 50.50381 19.05122 1815 ft 142 kts 15°
2026-05-06 18:49 50.51114 19.06044 1813 ft 136 kts 73°
2026-05-06 18:49 50.50713 19.07107 1768 ft 131 kts 173°
2026-05-06 18:49 50.50439 19.06092 1717 ft 155 kts 329°
2026-05-06 18:50 50.50781 19.06434 1750 ft 125 kts 166°
2026-05-06 18:50 50.50142 19.07110 1727 ft 134 kts 101°
2026-05-06 18:50 50.50846 19.07700 1604 ft 157 kts 316°
2026-05-06 18:50 50.50536 19.06811 1675 ft 126 kts 163°
2026-05-06 18:51 50.50144 19.07877 1666 ft 131 kts 59°
2026-05-06 18:51 50.50613 19.07288 1591 ft 136 kts 232°
2026-05-06 18:51 50.50135 19.07788 1549 ft 135 kts 69°
2026-05-06 18:51 50.50811 19.07608 1494 ft 144 kts 258°
2026-05-06 18:52 50.50384 19.07885 1597 ft 134 kts 46°
2026-05-06 18:52 50.50726 19.07239 1754 ft 110 kts 193°
2026-05-06 18:52 50.50574 19.08146 1724 ft 133 kts 48°
2026-05-06 18:52 50.50940 19.07571 1752 ft 128 kts 206°
2026-05-06 18:53 50.50618 19.08357 1746 ft 139 kts 32°
2026-05-06 18:53 50.50964 19.07597 1708 ft 130 kts 206°
2026-05-06 18:53 50.50450 19.08235 1779 ft 134 kts 57°
2026-05-06 18:53 50.50942 19.07565 1614 ft 139 kts 225°
2026-05-06 18:54 50.50243 19.07931 1610 ft 132 kts 107°
2026-05-06 18:54 50.50591 19.09112 1709 ft 139 kts
2026-05-06 18:54 50.51173 19.08241 1756 ft 130 kts 250°
2026-05-06 18:54 50.50560 19.08376 1714 ft 136 kts 98°
2026-05-06 18:55 50.51214 19.08969 1767 ft 138 kts 306°
2026-05-06 18:55 50.50815 19.08451 1729 ft 128 kts 121°
2026-05-06 18:55 50.51381 19.09260 1703 ft 149 kts 342°
2026-05-06 18:55 50.51460 19.08075 1797 ft 127 kts 208°
2026-05-06 18:56 50.50901 19.08742 1861 ft 132 kts 81°
2026-05-06 18:56 50.51751 19.09019 1756 ft 155 kts 322°
2026-05-06 18:56 50.51796 19.07727 1763 ft 132 kts 188°
2026-05-06 18:56 50.51481 19.08830 1770 ft 143 kts 60°
2026-05-06 18:57 50.51913 19.08300 1688 ft 134 kts 204°
2026-05-06 18:57 50.51047 19.07793 1659 ft 135 kts 197°
2026-05-06 18:57 50.50148 19.07288 1619 ft 135 kts 187°
2026-05-06 18:57 50.49610 19.08056 1694 ft 134 kts 66°
2026-05-06 18:58 50.50335 19.07802 1633 ft 146 kts 269°
2026-05-06 18:58 50.49683 19.07402 1605 ft 130 kts 130°
2026-05-06 18:58 50.49727 19.08686 1710 ft 137 kts 47°
2026-05-06 18:58 50.50494 19.08404 1704 ft 140 kts 275°
2026-05-06 18:59 50.49888 19.07852 1736 ft 128 kts 141°
2026-05-06 18:59 50.49950 19.09091 1757 ft 146 kts 36°
2026-05-06 18:59 50.50835 19.08689 1737 ft 146 kts 287°
2026-05-06 18:59 50.50297 19.08066 1805 ft 126 kts 149°
2026-05-06 19:00 50.50100 19.09363 1755 ft 139 kts 68°
2026-05-06 19:00 50.50929 19.09489 1708 ft 152 kts 296°
2026-05-06 19:00 50.50468 19.08431 1721 ft 137 kts 179°
2026-05-06 19:00 50.49819 19.08490 1600 ft 144 kts 173°
2026-05-06 19:01 50.49306 19.10128 1444 ft 140 kts 97°
2026-05-06 19:01 50.49229 19.11471 1318 ft 109 kts 99°
2026-05-06 19:01 50.48923 19.12274 1267 ft 85 kts 171°
2026-05-06 19:01 50.48321 19.12149 1221 ft 91 kts 186°
2026-05-06 19:02 50.47702 19.11894 1213 ft 99 kts 221°
2026-05-06 19:02 50.47599 19.10727 1099 ft 109 kts 263°
2026-05-06 19:02 50.47597 19.09581 1000 ft 100 kts 265°
2026-05-06 19:02 50.47601 19.08517 1010 ft 97 kts 266°
2026-05-06 19:03 50.47620 19.07478 1089 ft 91 kts 265°
2026-05-06 19:03 50.47611 19.06516 1208 ft 89 kts 267°
2026-05-06 19:03 50.47611 19.05484 1331 ft 99 kts 266°
2026-05-06 19:03 50.47941 19.04544 1458 ft 107 kts 339°
2026-05-06 19:04 50.48685 19.04429 1598 ft 111 kts 358°
2026-05-06 19:04 50.49488 19.04440 1725 ft 118 kts 22°
2026-05-06 19:04 50.49993 19.05333 1820 ft 113 kts 87°
2026-05-06 19:04 50.49948 19.06601 1831 ft 120 kts 98°
2026-05-06 19:05 50.49889 19.07951 1834 ft 127 kts 98°
2026-05-06 19:05 50.49837 19.09371 1832 ft 132 kts 98°
2026-05-06 19:05 50.49746 19.10830 1740 ft 135 kts 103°
2026-05-06 19:05 50.49526 19.12222 1597 ft 125 kts 123°
2026-05-06 19:06 50.48849 19.12778 1515 ft 105 kts 185°
2026-05-06 19:06 50.48165 19.12403 1344 ft 104 kts 199°
2026-05-06 19:06 50.47661 19.11696 1218 ft 103 kts 251°
2026-05-06 19:06 50.47593 19.10528 1079 ft 113 kts 268°
2026-05-06 19:07 50.47598 19.09285 999 ft 109 kts 268°
2026-05-06 19:07 50.47595 19.08585 994 ft 90 kts 264°
2026-05-06 19:07 50.47613 19.07177 1194 ft 95 kts 265°
2026-05-06 19:07 50.47630 19.06105 1342 ft 104 kts 268°
2026-05-06 19:08 50.47655 19.04896 1456 ft 114 kts 270°
2026-05-06 19:08 50.47815 19.03685 1580 ft 117 kts 305°
2026-05-06 19:08 50.48523 19.03223 1708 ft 116 kts
2026-05-06 19:08 50.49285 19.03561 1817 ft 115 kts 47°
2026-05-06 19:09 50.49555 19.04739 1827 ft 122 kts 92°
2026-05-06 19:09 50.49639 19.06106 1825 ft 128 kts 90°
2026-05-06 19:09 50.49650 19.07520 1829 ft 131 kts 95°
2026-05-06 19:09 50.49656 19.08969 1803 ft 135 kts 94°
2026-05-06 19:10 50.49591 19.10431 1656 ft 132 kts 102°
2026-05-06 19:10 50.49471 19.11826 1391 ft 122 kts 102°
2026-05-06 19:10 50.49070 19.12514 1348 ft 82 kts 183°
2026-05-06 19:10 50.48471 19.12349 1278 ft 97 kts 189°
2026-05-06 19:11 50.47830 19.12065 1300 ft 88 kts 213°
2026-05-06 19:11 50.47602 19.11200 1158 ft 86 kts 258°
2026-05-06 19:11 50.47597 19.10277 1051 ft 85 kts 262°
2026-05-06 19:11 50.47598 19.09309 997 ft 90 kts 263°
2026-05-06 19:12 50.47604 19.08338 1059 ft 86 kts 265°
2026-05-06 19:12 50.47651 19.07420 1181 ft 83 kts 269°
2026-05-06 19:12 50.47699 19.06827 1265 ft 82 kts 269°
2026-05-06 19:12 50.47912 19.05575 1434 ft 104 kts 314°
2026-05-06 19:13 50.48621 19.05254 1569 ft 113 kts 12°
2026-05-06 19:13 50.49166 19.06000 1696 ft 104 kts 85°
2026-05-06 19:13 50.49151 19.07121 1815 ft 105 kts 97°
2026-05-06 19:13 50.49124 19.07916 1810 ft 115 kts 97°
2026-05-06 19:14 50.49346 19.09150 1846 ft 128 kts 59°
2026-05-06 19:14 50.50124 19.09883 1829 ft 141 kts
2026-05-06 19:14 50.51024 19.09324 1824 ft 146 kts 310°
2026-05-06 19:14 50.51306 19.07871 1815 ft 140 kts 257°
2026-05-06 19:15 50.50771 19.06734 1821 ft 129 kts 202°
2026-05-06 19:15 50.49936 19.06820 1814 ft 126 kts 147°
2026-05-06 19:15 50.49535 19.08013 1821 ft 132 kts 98°
2026-05-06 19:15 50.49917 19.09334 1816 ft 143 kts 42°
2026-05-06 19:16 50.50876 19.09693 1813 ft 150 kts 348°
2026-05-06 19:16 50.51677 19.08737 1814 ft 146 kts 295°
2026-05-06 19:16 50.51775 19.07224 1813 ft 139 kts 248°
2026-05-06 19:16 50.51140 19.06237 1820 ft 129 kts 192°
2026-05-06 19:17 50.50316 19.06561 1815 ft 128 kts 140°
2026-05-06 19:17 50.49772 19.07666 1816 ft 128 kts 131°
2026-05-06 19:17 50.49427 19.08928 1814 ft 135 kts 93°
2026-05-06 19:17 50.49884 19.10211 1819 ft 144 kts 37°
2026-05-06 19:18 50.50871 19.10451 1815 ft 149 kts 345°
2026-05-06 19:18 50.51626 19.09448 1814 ft 144 kts 291°
2026-05-06 19:18 50.51568 19.08004 1816 ft 133 kts 229°
2026-05-06 19:18 50.50819 19.07310 1863 ft 124 kts 185°
2026-05-06 19:19 50.50031 19.07654 1918 ft 120 kts 141°
2026-05-06 19:19 50.49870 19.08958 1784 ft 141 kts 68°
2026-05-06 19:19 50.50721 19.09278 1760 ft 149 kts 309°
2026-05-06 19:19 50.50361 19.08110 1677 ft 135 kts 187°
2026-05-06 19:20 50.49803 19.08994 1611 ft 141 kts 70°
2026-05-06 19:20 50.50414 19.08583 1480 ft 137 kts 256°
2026-05-06 19:20 50.49747 19.07944 1466 ft 120 kts 168°
2026-05-06 19:20 50.49035 19.08477 1430 ft 124 kts 115°
2026-05-06 19:21 50.49119 19.09836 1421 ft 125 kts 84°
2026-05-06 19:21 50.49172 19.11144 1548 ft 102 kts 104°
2026-05-06 19:21 50.48812 19.11987 1515 ft 103 kts 165°
2026-05-06 19:21 50.48088 19.11724 1398 ft 108 kts 196°
2026-05-06 19:22 50.47625 19.11106 1187 ft 89 kts 252°
2026-05-06 19:22 50.47600 19.10138 1041 ft 85 kts 266°
2026-05-06 19:22 50.47602 19.09224 1006 ft 84 kts 265°
2026-05-06 19:22 50.47602 19.08285 1003 ft 87 kts 265°
2026-05-06 19:23 50.47596 19.07445 995 ft 59 kts 269°
2026-05-06 19:23 50.47549 19.07027 994 ft 31 kts 247°
2026-05-06 19:23 50.47490 19.06859 993 ft 14 kts 243°
2026-05-06 19:23 50.47446 19.06737 996 ft 11 kts 243°
2026-05-06 19:24 50.47427 19.06619 993 ft 12 kts 271°
2026-05-06 19:24 50.47428 19.06477 991 ft 15 kts 269°
2026-05-06 19:24 50.47427 19.06303 989 ft 17 kts 268°
2026-05-06 19:24 50.47428 19.06116 987 ft 16 kts 270°
2026-05-06 19:25 50.47447 19.05983 987 ft 13 kts 263°
2026-05-06 19:25 50.47447 19.05829 984 ft 14 kts 269°
2026-05-06 19:25 50.47414 19.05761 983 ft 9 kts 185°
2026-05-06 19:25 50.47400 19.05777 985 ft 0 kts 31°